Change the Weather History Date:

Tuesday, January 31, 2012

  Actual Average Record
Temperature  
Mean Temperature -48 °F -  
Max Temperature -45 °F -7 °F 24 °F (1999)
Min Temperature -51 °F -21 °F -51 °F (2012)
Degree Days  
Heating Degree Days 113    
Moisture  
Dew Point -    
Average Humidity    
Maximum Humidity    
Minimum Humidity    
Precipitation  
Precipitation 0.00 in - - ()
Sea Level Pressure  
Sea Level Pressure 29.60 in    
Wind  
Wind Speed 9 mph (WSW)    
Max Wind Speed 13 mph    
Max Gust Speed -    
Visibility 8 miles    
Events Fog    
Averages and records for this station are not official NWS values.
T = Trace of Precipitation, MM = Missing Value Source: NWS Daily Summary

Daily Weather History Graph

Daily Weather History Graph

Search for Another Location

Airport or City:

Trip Planner

Search our weather history database for the weather conditions in past years. The results will help you decide how hot, cold, wet, or windy it might be!

Date:

Astronomy

Jan. 31, 2012 Rise Set
Actual Time 10:49 AM AKST 3:26 PM AKST
Civil Twilight 9:19 AM AKST 4:56 PM AKST
Nautical Twilight 7:59 AM AKST 6:16 PM AKST
Astronomical Twilight 6:47 AM AKST 7:28 PM AKST
Moon 8:18 AM AKST (1/31) 5:43 AM AKST (1/31)
Length of Visible Light 7h 36m
Length of Day
4h 37m
First Quarter, 57% of the Moon is Illuminated
Jan 31
First Quarter
Feb 7
Full
Feb 14
Last Quarter
Feb 21
New
Feb 29
First Quarter

Hourly Weather History & Observations

Time (AKST) Temp. Windchill Dew Point Humidity Pressure Visibility Wind Dir Wind Speed Gust Speed Precip Events Conditions
12:53 AM -47.0 °F -71.5 °F - N/A% 29.55 in 7.0 mi WSW 8.1 mph - N/A   Mostly Cloudy
1:53 AM -45.9 °F -68.3 °F - N/A% 29.57 in 4.0 mi WSW 6.9 mph - N/A   Overcast
2:25 AM -45.4 °F -69.5 °F - N/A% 29.55 in 6.0 mi West 8.1 mph - N/A   Overcast
2:53 AM -45.9 °F -70.1 °F - N/A% 29.57 in 4.0 mi WSW 8.1 mph - N/A   Overcast
3:22 AM -47.2 °F -71.7 °F - N/A% 29.56 in 4.0 mi WSW 8.1 mph - N/A   Overcast
3:53 AM -45.9 °F -71.8 °F - N/A% 29.57 in 3.0 mi WSW 9.2 mph - N/A   Overcast
4:53 AM -45.9 °F -70.1 °F - N/A% 29.56 in 8.0 mi SW 8.1 mph - N/A   Overcast
5:53 AM -45.9 °F -71.8 °F - N/A% 29.56 in 10.0 mi WSW 9.2 mph - N/A   Overcast
6:10 AM -45.4 °F -71.1 °F - N/A% 29.55 in 10.0 mi SW 9.2 mph - N/A   Mostly Cloudy
6:53 AM -45.9 °F -70.1 °F - N/A% 29.57 in 10.0 mi WSW 8.1 mph - N/A   Partly Cloudy
7:53 AM -45.9 °F -71.8 °F - N/A% 29.57 in 10.0 mi WSW 9.2 mph - N/A   Clear
8:53 AM -47.0 °F -73.1 °F - N/A% 29.58 in 10.0 mi SW 9.2 mph - N/A   Clear
9:53 AM -47.0 °F -73.1 °F - N/A% 29.59 in 10.0 mi WSW 9.2 mph - N/A   Scattered Clouds
10:53 AM -47.0 °F -71.5 °F - N/A% 29.60 in 10.0 mi WSW 8.1 mph - N/A   Partly Cloudy
11:53 AM -47.0 °F -73.1 °F - N/A% 29.61 in 10.0 mi SW 9.2 mph - N/A   Partly Cloudy
12:53 PM -47.0 °F -76.0 °F - N/A% 29.61 in 10.0 mi SW 11.5 mph - N/A   Clear
1:53 PM -47.9 °F -75.8 °F - N/A% 29.61 in 10.0 mi WSW 10.4 mph - N/A   Clear
2:53 PM -47.9 °F -75.8 °F - N/A% 29.62 in 10.0 mi WSW 10.4 mph - N/A   Clear
3:53 PM -49.0 °F - - N/A% 29.62 in 10.0 mi WSW 9.2 mph - N/A Fog Patches of Fog
4:53 PM -47.0 °F -77.3 °F - N/A% 29.63 in 10.0 mi SW 12.7 mph - N/A Fog Patches of Fog
5:53 PM -47.0 °F -76.0 °F - N/A% 29.64 in 5.0 mi SW 11.5 mph - N/A   Clear
6:53 PM -47.0 °F -74.7 °F - N/A% 29.65 in 10.0 mi WSW 10.4 mph - N/A Fog Patches of Fog
7:53 PM -47.9 °F -72.6 °F - N/A% 29.66 in 7.0 mi West 8.1 mph - N/A Fog Patches of Fog
8:53 PM -50.1 °F - - N/A% 29.67 in 10.0 mi WSW 8.1 mph - N/A Fog Patches of Fog
9:53 PM -51.0 °F - - N/A% 29.67 in 10.0 mi WSW 8.1 mph - N/A Fog Patches of Fog
10:53 PM -50.1 °F - - N/A% 29.68 in 10.0 mi WSW 9.2 mph - N/A Fog Patches of Fog
11:53 PM -49.0 °F - - N/A% 29.69 in 10.0 mi SW 11.5 mph - N/A Fog Patches of Fog